Hourly Data Report for October 04, 2017

All times are specified in Local Standard Time (LST). Add 1 hour to adjust for Daylight Saving Time where and when it is observed.

KELOWNA UBCO
BRITISH COLUMBIA

49°56'26.700" N
119°24'00.760" W
456.00 m
1123996
71644
VKU

Download Data

Hourly Data (October 2017)
Hourly Data Report for October 4, 2017
Temp Definition
°C
Dew Point Temp Definition
°C
Rel Hum Definition
%
Wind Dir Definition
10's deg

Wind Spd Definition
km/h
Visibility Definition
km
Stn Press Definition
kPa
Hmdx Definition


Wind Chill Definition


Weather Definition


TIME
00:00 3.9 -1.1 70       97.32     LegendNANA
01:00 3.4 -1.4 71       97.36     LegendNANA
02:00 1.4 -2.0 78       97.35     LegendNANA
03:00 1.7 -1.2 81       97.35     LegendNANA
04:00 0.8 -1.6 84       97.33     LegendNANA
05:00 0.5 -1.2 89       97.32     LegendNANA
06:00 0.9 -1.2 86       97.32     LegendNANA
07:00 1.8 -0.7 83       97.34     LegendNANA
08:00 5.7 -0.1 66       97.30     LegendNANA
09:00 7.3 -0.2 59       97.25     LegendNANA
10:00 9.9 -0.5 48       97.21     LegendNANA
11:00 10.3 -0.6 47       97.15     LegendNANA
12:00 12.3 -1.2 39       97.06     LegendNANA
13:00 13.9 -1.1 35       96.99     LegendNANA
14:00 14.8 -1.4 33       96.94     LegendNANA
15:00 14.9 -2.4 30       96.91     LegendNANA
16:00 14.8 -2.1 31       96.89     LegendNANA
17:00 14.0 -1.9 33       96.86     LegendNANA
18:00 10.5 0.1 48       96.90     LegendNANA
19:00 8.4 0.2 56       96.93     LegendNANA
20:00 6.7 -0.4 60       96.95     LegendNANA
21:00 5.9 -0.5 63       96.95     LegendNANA
22:00 5.3 -0.2 67       96.95     LegendNANA
23:00 4.5 -0.4 70       96.97     LegendNANA

Notes on Data Quality.

Legend

  • E = Estimated
  • M = Missing
  • NA = Not Available
  • ‡ = Partner data that is not subject to review by the National Climate Archives
Date modified: